Location: Hackberry
(29.5783°N, 96.8797°W)
Time: 09:50:22
(UTC+00:00)

ISS - Visible Passes

Search period start: 09 November 2025 00:00
Search period end: 19 November 2025 00:00
Orbit: 415 x 421 km, 51.6° (Epoch: 08 November)

Date Brightness Start Highest point End Pass type
(mag) Time Alt. Az. Time Alt. Az. Time Alt. Az.
09 Nov -1.1 01:41:08 10° SW 01:42:04 17° SW 01:42:04 17° SW visible
10 Nov -3.7 00:53:20 10° SSW 00:56:35 53° SE 00:56:45 52° ESE visible
11 Nov -2.5 00:05:58 10° S 00:08:46 25° SE 00:11:20 11° ENE visible
11 Nov -0.9 01:42:57 10° W 01:44:18 17° WNW 01:44:18 17° WNW visible
12 Nov -2.5 00:54:22 10° WSW 00:57:28 36° NW 00:58:45 25° N visible
13 Nov -3.6 00:06:09 10° SW 00:09:29 74° NW 00:12:49 10° NE visible
14 Nov -1.0 00:56:54 10° WNW 00:58:30 13° NW 01:00:05 10° N visible
15 Nov -1.6 00:07:42 10° W 00:10:19 21° NW 00:12:56 10° NNE visible
